Regional Weather Roundup
Issued by NWS

Home | Current Version | Previous Version | Graphics & Text | Print | Product List | Glossary On
Versions: 1 2 3 4 5 6 7 8 9 10 11 12 13 14 15 16 17 18 19 20 21 22 23 24 25 26 27 28 29 30 31 32 33 34 35 36 37 38 39 40 41 42 43 44 45 46 47 48 49 50
000
ASUS43 KMKX 011821
RWRWI

WISCONSIN REGIONAL WEATHER ROUNDUP
NATIONAL WEATHER SERVICE MILWAUKEE/SULLIVAN WI
100 PM CDT SUN MAY 01 2016

NOTE: "FAIR" INDICATES FEW OR NO CLOUDS BELOW 12,000 FEET WITH NO
SIGNIFICANT WEATHER AND/OR OBSTRUCTIONS TO VISIBILITY.

WIZ001-002-006>008-014>016-023>028-011900-
NORTHWEST WISCONSIN

CITY           SKY/WX    TMP DP  RH WIND       PRES   REMARKS
SUPERIOR ARPT  SUNNY     47  37  67 NE10      30.24F
6HR MIN TEMP:  39; 6HR MAX TEMP:  47;

ASHLAND        MOSUNNY   49  39  68 N16       30.23F
6HR MIN TEMP:  39; 6HR MAX TEMP:  50;

HAYWARD        SUNNY     52  36  54 N15       30.17F
6HR MIN TEMP:  37; 6HR MAX TEMP:  52;

SIREN          SUNNY     56  35  44 N16G22    30.15F
6HR MIN TEMP:  38; 6HR MAX TEMP:  56;

CUMBERLAND     MOSUNNY   54  34  47 NE13      30.13F
RICE LAKE      SUNNY     57  35  44 N13G22    30.13F
6HR MIN TEMP:  40; 6HR MAX TEMP:  57;

CHETEK         SUNNY     58  34  41 E10G18    30.11F
6HR MIN TEMP:  41; 6HR MAX TEMP:  59;

LADYSMITH      SUNNY     60  32  34 E12G22    30.12F
6HR MIN TEMP:  38; 6HR MAX TEMP:  58;

EAU CLAIRE     SUNNY     60  33  36 E9        30.09F
6HR MIN TEMP:  42; 6HR MAX TEMP:  60;

MENOMONIE      SUNNY     62  32  33 NE10G18   30.10F
6HR MIN TEMP:  42; 6HR MAX TEMP:  62;

NEW RICHMOND   MOSUNNY   58  34  41 NE13G20   30.13F
6HR MIN TEMP:  40; 6HR MAX TEMP:  58;

OSCEOLA        SUNNY     58  36  44 E9        30.17F
6HR MIN TEMP:  40; 6HR MAX TEMP:  58;

$$

WIZ003>005-009-010-017-018-011900-
NORTH CENTRAL WISCONSIN

CITY           SKY/WX    TMP DP  RH WIND       PRES   REMARKS
MANITOWISH WTR SUNNY     57  32  39 E13G18    30.13F
6HR MIN TEMP:  37; 6HR MAX TEMP:  57;

ARBOR VITAE    MOSUNNY   57  29  33 NE10      30.11F
6HR MIN TEMP:  39; 6HR MAX TEMP:  59;

WOODRUFF       MOSUNNY   57  29  33 NE10      30.11F
6HR MIN TEMP:  39; 6HR MAX TEMP:  59;

RHINELANDER    MOSUNNY   60  29  30 NE12      30.10F
6HR MIN TEMP:  37; 6HR MAX TEMP:  61;

EAGLE RIVER    MOSUNNY   58  26  28 NE8G21    30.11F
LAND O LAKES   PTSUNNY   56  28  33 N7G18     30.13F
6HR MIN TEMP:  37; 6HR MAX TEMP:  59;

PHILLIPS       PTSUNNY   58  32  38 NE9G21    30.10F
6HR MIN TEMP:  36; 6HR MAX TEMP:  58;

TOMAHAWK       MOSUNNY   58  29  32 E9G17     30.09F
6HR MIN TEMP:  36; 6HR MAX TEMP:  60;

MEDFORD        PTSUNNY   58  33  38 E13       30.08F
6HR MIN TEMP:  38; 6HR MAX TEMP:  58;

MERRILL        PTSUNNY   57  32  38 E13G21    30.08F
$$

WIZ029-030-035-036-043>047-011900-
CENTRAL WISCONSIN

CITY           SKY/WX    TMP DP  RH WIND       PRES   REMARKS
WAUSAU         MOSUNNY   61  30  31 E8G17     30.06F
6HR MIN TEMP:  44; 6HR MAX TEMP:  62;

MOSINEE        MOSUNNY   57  28  33 E10G17    30.10F
MARSHFIELD     CLOUDY    57  29  34 E9G20     30.08F
6HR MIN TEMP:  43; 6HR MAX TEMP:  58;

STEVENS POINT  CLOUDY    53  30  42 E10       30.09S
6HR MIN TEMP:  41; 6HR MAX TEMP:  53;

WAUPACA        CLOUDY    56  36  47 NE6       30.09F
6HR MIN TEMP:  45; 6HR MAX TEMP:  56;

WAUTOMA        CLOUDY    54  40  59 NE12      30.08S
6HR MIN TEMP:  43; 6HR MAX TEMP:  54;

WISC RAPIDS    CLOUDY    55  34  45 E10       30.10F
6HR MIN TEMP:  44; 6HR MAX TEMP:  55;

CAMP DOUGLAS   CLOUDY    50  46  87 E9        30.08S
$$

WIZ011>013-019>022-031-037>040-048>050-011900-
NORTHEAST WISCONSIN

CITY           SKY/WX    TMP DP  RH WIND       PRES   REMARKS
ANTIGO         SUNNY     58  31  35 NE12G18   30.08F
6HR MIN TEMP:  39; 6HR MAX TEMP:  58;

SHAWANO        MOSUNNY   59  37  44 E13G18    30.10F
6HR MIN TEMP:  45; 6HR MAX TEMP:  59;

OCONTO         MOSUNNY   55  37  51 E10       30.11F
6HR MIN TEMP:  42; 6HR MAX TEMP:  55;

STURGEON BAY   MOSUNNY   54  37  54 E13G20    30.13F
6HR MIN TEMP:  41; 6HR MAX TEMP:  54;

GREEN BAY      CLOUDY    54  41  61 NE16      30.10F
6HR MIN TEMP:  43; 6HR MAX TEMP:  54; 6HR PCP: TRACE;

MANITOWOC      CLOUDY    54  39  57 MISG      30.08S
6HR MIN TEMP:  42; 6HR MAX TEMP:  54; 6HR PCP: TRACE;

APPLETON       PTSUNNY   54  32  43 NE14G21   30.07F
CLINTONVILLE   CLOUDY    55  32  41 E8G16     30.09S
OSHKOSH        PTSUNNY   54  40  59 NE18      30.07F
6HR MIN TEMP:  44; 6HR MAX TEMP:  54;

$$

WIZ032>034-041-042-053>061-011900-
SOUTHWEST WISCONSIN

CITY           SKY/WX    TMP DP  RH WIND       PRES   REMARKS
LA CROSSE      CLOUDY    55  38  52 E9        30.07F
6HR MIN TEMP:  47; 6HR MAX TEMP:  56;

SPARTA         CLOUDY    52  39  61 E16G22    30.09S
6HR MIN TEMP:  45; 6HR MAX TEMP:  55;

VIROQUA        CLOUDY    50  40  69 E12       30.07R
6HR MIN TEMP:  41; 6HR MAX TEMP:  53;

BOSCOBEL       CLOUDY    50  43  77 NE5G17    30.06S
6HR MIN TEMP:  46; 6HR MAX TEMP:  52;

PRAIRIE DU CHI CLOUDY    51  38  62 NE10G16   30.04S
6HR MIN TEMP:  45; 6HR MAX TEMP:  51;

PLATTEVILLE    CLOUDY    51  45  80 NE18      30.02F
$$

WIZ056-057-062-063-064-067-068-011900-
SOUTH CENTRAL WISCONSIN

CITY           SKY/WX    TMP DP  RH WIND       PRES   REMARKS
REEDSBURG      CLOUDY    50  42  74 NE9       30.06S
6HR MIN TEMP:  42; 6HR MAX TEMP:  50;

BARABOO/DELLS  CLOUDY    51  42  71 NE9       30.06S
6HR MIN TEMP:  42; 6HR MAX TEMP:  51;

LONE ROCK      CLOUDY    50  43  77 E9        30.06F
6HR MIN TEMP:  43; 6HR MAX TEMP:  50;

MINERAL POINT  CLOUDY    50  45  81 NE13      30.03F
MADISON        CLOUDY    51  44  77 NE12G21   30.04S
6HR MIN TEMP:  42; 6HR MAX TEMP:  51; 6HR PCP: TRACE;

MIDDLETON      CLOUDY    51  44  77 NE12      30.05S
6HR MIN TEMP:  43; 6HR MAX TEMP:  51;

WATERTOWN      CLOUDY    54  43  66 NE8G20    30.03S
6HR MIN TEMP:  42; 6HR MAX TEMP:  54;

MONROE         CLOUDY    46  45  93 NE13      30.01F
JANESVILLE     CLOUDY    54  46  76 E14G20    30.01F
$$

WIZ051-052-058>065-066-070>072-011900-
SOUTHEAST WISCONSIN

CITY           SKY/WX    TMP DP  RH WIND       PRES   REMARKS
MILWAUKEE      CLOUDY    45  38  76 N15G22    30.04F
6HR MIN TEMP:  41; 6HR MAX TEMP:  47; 6HR PCP:  0.01;

WAUKESHA       CLOUDY    52  39  62 NE15G21   30.04F
MILWAUKEE/TIMM CLOUDY    50  36  57 NE15G21   30.05S
RACINE         CLOUDY    46  38  73 N12       30.05S
6HR MIN TEMP:  42; 6HR MAX TEMP:  46; 6HR PCP:  0.02;

BURLINGTON     CLOUDY    48  41  76 NE12G18   30.02F
6HR MIN TEMP:  42; 6HR MAX TEMP:  50;

KENOSHA        CLOUDY    46  42  86 NE14      30.02F FOG
6HR MIN TEMP:  43; 6HR MAX TEMP:  46; 6HR PCP:  0.01;

FOND DU LAC    CLOUDY    56  40  55 NE14G24   30.06F
6HR MIN TEMP:  44; 6HR MAX TEMP:  56;

SHEBOYGAN      CLOUDY    51  40  65 NE20      30.06F
6HR MIN TEMP:  42; 6HR MAX TEMP:  52; 6HR PCP:  0.01;

WEST BEND      CLOUDY    52  37  58 NE13      30.04F
JUNEAU         CLOUDY    54  41  61 NE14G22   30.04F
6HR MIN TEMP:  41; 6HR MAX TEMP:  54;

$$

LSZ147-162-011900-
LAKE SUPERIOR

STATION/POSITION TIME  TEMP    WIND        PRES    WAVE
                       AIR SEA DIR/SP/G            HT/PER
                 (UTC) (F)     (DEG/KT/KT) (MB)    (FT/S)
W MID LAKE BUOY  1750   38 37   30/  8/ 10 1024.7F   3/ 5
DEVILS ISLAND    1800   39      70/ 11/ 13 1024.9F
SAXON HARBOR     1700   39      30/ 11/ 13 1023.4
$$

LMZ867-665-643>646-011900-
LAKE MICHIGAN

STATION/POSITION TIME  TEMP    WIND        PRES    WAVE
                       AIR SEA DIR/SP/G            HT/PER
                 (UTC) (F)     (DEG/KT/KT) (MB)    (FT/S)
CHAMBERS ISLAND  1700   45     360/  9/ 10 1020.7S
N MID LAKE BUOY  1750   41 39   40/  8/  8 1020.5F   1/ 3
NORTHPORT PIER   1700   45      70/  9/ 11 1020.7S
ALGOMA LAKESHORE 1C1F1C2F2C3F3C4F4C5F5C6F6C7F7C8M1C9M2Ca!



USA.gov is the U.S. government's official web portal to all federal, state and local government web resources and services.